Shelton, WA

11:50 AM PST on February 14, 2016 (GMT -0800)
Sanderson

Weather History for KSHN - November, 2013

Change the Weather History Date:

Sunday, November 3, 2013

  Actual Average Record
Temperature  
Mean Temperature 40 °F -  
Max Temperature 52 °F 56 °F 72 °F (2010)
Min Temperature 30 °F 41 °F 19 °F (2002)
Degree Days  
Heating Degree Days 25    
Moisture  
Dew Point 37 °F    
Average Humidity 82    
Maximum Humidity 93    
Minimum Humidity 59    
Precipitation  
Precipitation 0.00 in - - ()
Sea Level Pressure  
Sea Level Pressure 30.03 in    
Wind  
Wind Speed 11 mph (WSW)    
Max Wind Speed 16 mph    
Max Gust Speed 24 mph    
Visibility 10 miles    
Events      
Averages and records for this station are not official NWS values.
T = Trace of Precipitation, MM = Missing Value Source: NWS Daily Summary

Daily Weather History Graph

Daily Weather History Graph

Search for Another Location

Airport or City:

Trip Planner

Search our weather history database for the weather conditions in past years. The results will help you decide how hot, cold, wet, or windy it might be!

Date:

Astronomy

Nov. 03, 2013 Rise Set
Actual Time 6:59 AM PST 4:52 PM PST
Civil Twilight 6:27 AM PST 5:24 PM PST
Nautical Twilight 5:50 AM PST 6:00 PM PST
Astronomical Twilight 5:15 AM PST 6:36 PM PST
Moon 7:10 AM PST (11/3) 5:09 PM PST (11/3)
Length of Visible Light 10h 57m
Length of Day
9h 53m
New Moon, 0% of the Moon is Illuminated
Nov 3
New Moon
Nov 9
First Quarter
Nov 17
Full
Nov 25
Last Quarter
Dec 2
New

Hourly Weather History & Observations

Time (PST) Temp. Windchill Dew Point Humidity Pressure Visibility Wind Dir Wind Speed Gust Speed Precip Events Conditions
12:53 AM 42.1 °F 34.9 °F 39.0 °F 89% 29.91 in 10.0 mi WSW 13.8 mph - N/A   Clear
1:53 AM 42.1 °F 34.2 °F 39.0 °F 89% 29.94 in 10.0 mi WSW 16.1 mph - N/A   Clear
1:53 AM 42.1 °F 35.7 °F 39.0 °F 89% 29.96 in 10.0 mi WSW 11.5 mph - N/A   Clear
2:53 AM 41.0 °F 34.7 °F 39.0 °F 93% 29.96 in 10.0 mi WSW 10.4 mph - N/A   Clear
3:53 AM 41.0 °F 34.7 °F 39.0 °F 93% 29.97 in 10.0 mi WSW 10.4 mph - N/A   Clear
4:53 AM 41.0 °F 34.3 °F 39.0 °F 93% 29.99 in 10.0 mi WSW 11.5 mph - N/A   Clear
5:53 AM 41.0 °F 34.3 °F 39.0 °F 93% 30.00 in 10.0 mi WSW 11.5 mph - N/A   Clear
6:53 AM 41.0 °F 34.3 °F 37.9 °F 89% 30.01 in 10.0 mi WSW 11.5 mph - N/A   Clear
7:53 AM 42.1 °F 36.6 °F 37.9 °F 85% 30.02 in 10.0 mi WSW 9.2 mph - N/A   Clear
8:53 AM 45.0 °F 41.2 °F 39.9 °F 82% 30.03 in 10.0 mi West 6.9 mph - N/A   Clear
9:53 AM 46.9 °F - 39.9 °F 77% 30.04 in 10.0 mi West 6.9 mph - N/A   Clear
10:53 AM 48.9 °F - 39.0 °F 69% 30.05 in 10.0 mi WSW 10.4 mph - N/A   Clear
11:53 AM 50.0 °F - 37.9 °F 63% 30.04 in 10.0 mi WSW 15.0 mph 20.7 mph N/A   Clear
12:53 PM 50.0 °F - 37.0 °F 61% 30.03 in 10.0 mi SW 15.0 mph 24.2 mph N/A   Clear
1:53 PM 48.9 °F - 35.1 °F 59% 30.04 in 10.0 mi WSW 13.8 mph - N/A   Clear
2:53 PM 50.0 °F - 37.0 °F 61% 30.04 in 10.0 mi WSW 9.2 mph - N/A   Clear
3:53 PM 48.9 °F - 36.0 °F 61% 30.04 in 10.0 mi WSW 13.8 mph 20.7 mph N/A   Clear
4:53 PM 45.0 °F 41.2 °F 36.0 °F 71% 30.05 in 10.0 mi West 6.9 mph - N/A   Clear
5:53 PM 37.9 °F 34.4 °F 34.0 °F 86% 30.06 in 10.0 mi WSW 4.6 mph - N/A   Clear
6:53 PM 37.0 °F 34.5 °F 34.0 °F 89% 30.09 in 10.0 mi West 3.5 mph - N/A   Clear
7:53 PM 36.0 °F - 33.1 °F 89% 30.09 in 10.0 mi Calm Calm - N/A   Clear
8:53 PM 35.1 °F - 33.1 °F 92% 30.09 in 10.0 mi Calm Calm - N/A   Clear
9:53 PM 30.9 °F - 28.9 °F 92% 30.11 in 10.0 mi Calm Calm - N/A   Clear
10:53 PM 30.0 °F - 28.0 °F 92% 30.11 in 10.0 mi Calm Calm - N/A   Clear